TimeCST,TemperatureF,Dew PointF,Humidity,Sea Level PressureIn,VisibilityMPH,Wind Direction,Wind SpeedMPH,Gust SpeedMPH,PrecipitationIn,Events,Conditions,WindDirDegrees,DateUTC
12:53 AM,-2.0,-9.0,72,30.48,10.0,North,12.7,-,N/A,,Clear,350,2013-02-20 06:53:00
1:53 AM,-2.0,-9.0,72,30.48,10.0,North,6.9,-,N/A,,Clear,10,2013-02-20 07:53:00
2:53 AM,-2.9,-9.0,75,30.48,10.0,North,4.6,-,N/A,,Clear,360,2013-02-20 08:53:00
3:53 AM,-2.9,-9.9,72,30.47,10.0,NNE,5.8,-,N/A,,Clear,20,2013-02-20 09:53:00
4:53 AM,-2.9,-9.9,72,30.47,10.0,Calm,Calm,-,N/A,,Clear,0,2013-02-20 10:53:00
5:53 AM,-2.9,-9.9,72,30.47,10.0,NNE,5.8,-,N/A,,Clear,30,2013-02-20 11:53:00
6:53 AM,-5.1,-11.0,76,30.48,10.0,Calm,Calm,-,N/A,,Clear,0,2013-02-20 12:53:00
7:53 AM,-2.0,-9.0,72,30.48,10.0,NNE,4.6,-,N/A,,Clear,20,2013-02-20 13:53:00
8:53 AM,1.9,-6.0,69,30.49,10.0,ENE,8.1,-,N/A,,Clear,60,2013-02-20 14:53:00
9:53 AM,6.1,-4.0,63,30.49,10.0,ENE,8.1,-,N/A,,Clear,70,2013-02-20 15:53:00
11:53 AM,12.0,-0.9,56,30.49,10.0,SE,8.1,-,N/A,,Clear,130,2013-02-20 17:53:00
12:53 PM,16.0,-0.0,49,30.47,10.0,East,8.1,-,N/A,,Clear,100,2013-02-20 18:53:00
1:53 PM,18.0,-0.0,45,30.42,10.0,ESE,6.9,-,N/A,,Clear,110,2013-02-20 19:53:00
2:53 PM,19.9,1.9,46,30.40,10.0,ESE,6.9,-,N/A,,Clear,110,2013-02-20 20:53:00
3:53 PM,21.0,3.0,46,30.40,10.0,East,8.1,-,N/A,,Clear,90,2013-02-20 21:53:00
4:53 PM,21.0,3.0,46,30.40,10.0,East,9.2,-,N/A,,Clear,100,2013-02-20 22:53:00
5:53 PM,19.9,3.9,50,30.37,10.0,East,12.7,-,N/A,,Clear,90,2013-02-20 23:53:00
6:53 PM,19.0,6.1,57,30.36,10.0,ENE,13.8,-,N/A,,Clear,70,2013-02-21 00:53:00
7:53 PM,17.1,6.1,62,30.37,10.0,East,13.8,-,N/A,,Partly Cloudy,80,2013-02-21 01:53:00
9:53 PM,15.1,8.1,74,30.37,10.0,East,12.7,-,N/A,,Scattered Clouds,80,2013-02-21 03:53:00
10:53 PM,14.0,7.0,74,30.36,10.0,East,11.5,-,N/A,,Mostly Cloudy,80,2013-02-21 04:53:00
11:53 PM,12.9,7.0,77,30.36,10.0,East,11.5,-,N/A,,Mostly Cloudy,90,2013-02-21 05:53:00